W1EUM Weather Reports


time (UTC)temp
C
wind
direction
speed
KPH
gust
KPH
rain 1hr
cm
rain 24hr
cm
rain mn
cm
humidity
%
barometer
mb
20260506014530 12 154 0.0 0.0 0.00 0.00 0.00 74 1008.2
20260506013032 12 226 0.0 0.0 0.00 0.00 0.00 75 1008.2
20260506011544 12 30 0.0 0.0 0.00 0.00 0.00 73 1008.3
20260506010029 11 160 0.0 0.0 0.00 0.00 0.00 73 1008.0
20260506004539 13 231 0.0 0.0 0.00 0.00 0.00 74 1007.7
20260506003029 14 189 0.0 0.0 0.00 0.00 0.00 73 1006.9
20260506001525 14 138 0.0 0.0 0.00 0.00 0.00 73 1006.9
20260506000026 13 224 0.0 0.0 0.00 0.00 0.00 74 1007.0
20260505234528 14 219 0.0 0.0 0.00 0.00 0.00 73 1006.9
20260505233030 14 238 0.0 0.0 0.00 0.00 0.00 73 1006.8
20260505231527 13 226 0.0 0.0 0.00 0.00 0.00 75 1005.5
20260505230024 13 168 0.0 0.0 0.00 0.00 0.00 75 1005.4
20260505224522 13 176 0.0 0.0 0.00 0.00 0.00 74 1005.0
20260505223021 13 172 0.0 0.0 0.00 0.00 0.00 74 1004.7
20260505221521 13 185 0.0 0.0 0.00 0.00 0.00 74 1004.4
20260505220123 13 176 0.0 0.0 0.00 0.00 0.00 74 1004.5
20260505214526 13 179 0.0 0.0 0.00 0.00 0.00 74 1004.4
20260505213021 13 184 0.0 0.0 0.00 0.00 0.00 73 1004.4
20260505211517 14 186 0.0 0.0 0.00 0.00 0.00 72 1004.5
20260505210015 14 153 0.0 0.0 0.00 0.00 0.00 73 1004.6
20260505204516 14 174 0.0 0.0 0.00 0.00 0.00 73 1004.4
20260505203013 14 172 0.0 0.0 0.00 0.00 0.00 73 1004.5
20260505201512 14 216 0.0 0.0 0.00 0.00 0.00 73 1004.6
20260505200009 13 176 0.0 0.0 0.00 0.00 0.00 74 1004.7
20260505194513 13 219 0.0 0.0 0.00 0.00 0.00 74 1005.2
20260505193002 13 190 0.0 0.0 0.00 0.00 0.00 74 1005.4
20260505191501 14 212 0.0 0.0 0.00 0.00 0.00 74 1005.7
20260505190059 13 170 0.0 0.0 0.00 0.00 0.00 74 1005.7
20260505184557 13 200 0.0 0.0 0.00 0.00 0.00 74 1005.9
20260505183056 13 208 0.0 0.0 0.00 0.00 0.00 74 1006.0
20260505181554 13 203 0.0 0.0 0.00 0.00 0.00 74 1006.0
20260505180053 14 162 0.0 0.0 0.00 0.00 0.00 74 1006.1
20260505174551 13 207 0.0 0.0 0.00 0.00 0.00 74 1006.5
20260505173049 13 165 0.0 0.0 0.00 0.00 0.00 74 1006.7
20260505171548 14 186 0.0 0.0 0.00 0.00 0.00 74 1006.7
20260505170045 13 208 0.0 0.0 0.00 0.00 0.00 74 1007.0
20260505164554 13 188 0.0 0.0 0.00 0.00 0.00 74 1007.1
20260505163043 13 186 0.0 0.0 0.00 0.00 0.00 74 1007.5
20260505161640 13 217 0.0 0.0 0.00 0.00 0.00 74 1007.7
20260505153040 11 223 0.0 0.0 0.00 0.00 0.00 67 1008.4
20260505151536 12 224 0.0 0.0 0.00 0.00 0.00 72 1008.4
20260505124541 12 197 0.0 0.0 0.00 0.00 0.00 75 1008.2
20260505123029 11 176 0.0 0.0 0.00 0.00 0.00 75 1008.2
20260505121533 11 180 0.0 0.0 0.00 0.00 0.00 74 1008.4
20260505120037 10 203 0.0 0.0 0.00 0.00 0.00 73 1008.6
20260505114527 11 208 0.0 0.0 0.00 0.00 0.00 73 1008.7
20260505113026 10 212 0.0 0.0 0.00 0.00 0.00 67 1008.7
20260505111525 8 203 0.0 0.0 0.00 0.00 0.00 44 1008.7
20260505101518 8 148 0.0 0.0 0.00 0.00 0.00 55 1008.4
20260505100017 -17 0.0 0.0 0.00 0.00 0.00 1008.3
20260505094512 -17 0.0 0.0 0.00 0.00 0.00 1008.4
20260505093006 -17 0.0 0.0 0.00 0.00 0.00 1008.3
20260505091502 -17 0.0 0.0 0.00 0.00 0.00 1008.3
20260505090058 -17 0.0 0.0 0.00 0.00 0.00 1008.4
20260505084555 -17 0.0 0.0 0.00 0.00 0.00 1008.5
20260505083053 -17 0.0 0.0 0.00 0.00 0.00 1008.4
20260505081550 -17 0.0 0.0 0.00 0.00 0.00 1008.4
20260505080040 -17 0.0 0.0 0.00 0.00 0.00 1008.6
20260505074536 -17 0.0 0.0 0.00 0.00 0.00 1008.5
20260505073033 -17 0.0 0.0 0.00 0.00 0.00 1008.4
20260505071529 9 169 0.0 0.0 0.00 0.00 0.00 70 1008.4
20260505070036 9 203 0.0 0.0 0.00 0.00 0.00 72 1008.3
20260505064525 9 232 0.0 0.0 0.00 0.00 0.00 74 1008.2
20260505063029 10 212 0.0 0.0 0.00 0.00 0.00 74 1008.3
20260505061525 10 210 0.0 0.0 0.00 0.00 0.00 75 1008.3
20260505060019 10 210 0.0 0.0 0.00 0.00 0.00 75 1008.3
20260505054518 10 219 0.0 0.0 0.00 0.00 0.00 75 1008.3
20260505053019 10 229 0.0 0.0 0.00 0.00 0.00 74 1008.2
20260505051517 11 197 0.0 0.0 0.00 0.00 0.00 73 1008.1
20260505041604 13 213 0.0 0.0 0.00 0.00 0.00 64 1007.5
20260505040059 13 226 0.0 0.0 0.00 0.00 0.00 62 1007.3
20260505034617 13 221 0.0 0.0 0.00 0.00 0.00 63 1007.3
20260505033058 13 186 0.0 0.0 0.00 0.00 0.00 64 1007.3
20260505031557 13 223 0.0 0.0 0.00 0.00 0.00 65 1007.1
20260505030056 12 217 0.0 0.0 0.00 0.00 0.00 72 1007.2
20260505024555 10 119 0.0 0.0 0.00 0.00 0.00 75 1007.4
20260505023058 10 212 0.0 0.0 0.00 0.00 0.00 74 1007.4
20260505021555 9 124 0.0 0.0 0.00 0.00 0.00 70 1007.2
20260505020058 8 124 0.0 0.0 0.00 0.00 0.00 57 1007.3